www.pogodaiklimat.ru

Погода и климат >> Архив погоды >> Иран >> Ferdous


ПОГОДА в Ferdous

  • Прогноз погоды в Ferdous
  • Монитор погоды в Ferdous
  • Климат города

АРХИВ ПОГОДЫ в Ferdous

Время (UTC), дата Ветер
(напр.,м/с)
 
Видим.   Явления Облачность Т
(С)
Тd
(С)
f
(%)
Тe
(С)
Тes
(С)
Комфортность P
(гПа)
Po
(гПа)
Тmin
(С)
Tmax
(С)
R
(мм)
R24
(мм)
S
(см)
15 14.10 СЗ 2 15 км 4/1 1050 м
[Sc Ac trans]
+16.2 +1.2 36 +16 +16 1018.6 875.2 +20.6
18 14.10 С 2 15 км 4/0
[Ci fib]
+14.6 +0.2 37 +15 +15 1017.0 875.3
21 14.10 штиль 0 15 км 4/3 1050 м
[Sc Ci fib]
+13.0 -0.3 40 +13 +13 1016.4 875.1
00 15.10 СВ 2 20 км ясно +11.2 -0.5 44 +10 +10 1016.5 874.6
03 15.10 В 2 15 км 8/3 1050 м
[Sc Ac trans]
+10.6 -0.3 47 +10 +10 1018.0 875.0 +9.7
06 15.10 Ю 2 15 км 5/4 1050 м
[Sc Ac trans]
+19.0 +2.5 33 +20 +24 1016.6 875.4
09 15.10 З 3 15 км 8/4 1050 м
[Sc diur, vesp Ac trans Ci sp]
+20.1 +2.8 32 +21 +24 комфорт 1015.9 874.7
12 15.10 З 4 20 км 6/1 1050 м
[Sc diur, vesp Ac trans Ci fib]
+20.1 +2.0 30 +20 +21 1015.8 874.2
15 15.10 СЗ 2 20 км 3/1 1050 м
[Sc diur, vesp Ci fib]
+16.4 +0.2 33 +17 +17 1018.1 875.1 +20.8
18 15.10 штиль 0 18 км ясно +13.4 -0.3 39 +13 +13 1017.5 875.8
21 15.10 С 4 15 км ясно +14.4 -1.1 34 +13 +13 1016.6 875.7
00 16.10 С 5 15 км ясно +13.1 -2.8 33 +11 +11 1016.9 875.4
03 16.10 СЗ 3 15 км 4/0
[Ci fib]
+12.1 -2.6 36 +11 +11 1019.8 876.8 +11.1
06 16.10 СЗ 6 12 км 3/1 1050 м
[Cu hum Ci fib]
+17.5 -0.3 30 +17 +19 1020.6 878.1
09 16.10 СЗ 7 12 км 4/3 1050 м
[Cu hum Ci fib]
+19.2 +1.0 30 +19 +21 1018.9 877.3
12 16.10 СЗ 5 15 км 1/1 1050 м
[Sc]
+19.5 -0.3 26 +19 +20 1018.6 876.8
15 16.10 С 3 15 км ясно +16.0 -1.0 31 +16 +16 1020.9 877.7 +19.7
18 16.10 С 3 15 км ясно +13.6 -0.9 37 +13 +13 1020.8 878.3
21 16.10 С 5 15 км ясно +12.7 -0.5 40 +11 +11 1020.3 877.4
00 17.10 СЗ 2 15 км ясно +8.9 -1.2 49 +8 +8 1020.4 877.4
03 17.10 штиль 0 20 км ясно +8.6 -1.7 48 +8 +9 1021.9 877.7 +7.3
06 17.10 З 4 20 км ясно +15.3 +0.3 36 +15 +20 1021.5 878.5
09 17.10 З 5 20 км ясно +18.7 -0.3 28 +18 +24 1018.9 876.8
12 17.10 З 6 20 км ясно +19.1 -0.3 27 +19 +20 1018.0 875.4
15 17.10 СЗ 4 20 км ясно +15.7 -1.8 30 +15 +15 1019.4 875.6 +19.4
18 17.10 С 4 15 км ясно +13.5 -2.3 33 +12 +12 1018.2 875.5
21 17.10 В 2 15 км ясно +9.2 -3.7 40 +8 +8 1017.4 875.2
00 18.10 СВ 2 15 км ясно +8.4 -3.4 43 +7 +7 1017.6 874.7
03 18.10 В 2 15 км ясно +6.9 -3.9 46 +5 +5 1019.6 875.3 +6.8
06 18.10 З 3 20 км ясно +16.1 -1.2 31 +16 +22 1018.5 876.1
09 18.10 З 6 20 км 1/1 1000 м
[Cu hum]
+18.9 -1.7 25 +18 +22 1017.2 874.6
12 18.10 З 6 20 км 1/1 1000 м
[Sc diur, vesp]
+19.3 -3.4 21 +19 +20 1016.4 873.8
15 18.10 СЗ 4 20 км ясно +15.3 -5.5 23 +15 +15 1019.1 874.8 +19.8
18 18.10 С 3 20 км ясно +13.3 -4.8 28 +13 +13 1017.9 875.4
21 18.10 СВ 2 20 км ясно +11.5 -5.5 30 +11 +11 1017.5 875.4
00 19.10 СВ 3 20 км ясно +9.1 -5.1 36 +7 +7 1018.2 875.4
03 19.10 штиль 0 20 км ясно +9.0 -4.5 38 +9 +9 1020.4 876.4 +8.6
06 19.10 ЮЗ 3 20 км ясно +16.4 -3.0 26 +16 +22 1020.3 877.6
09 19.10 З 4 20 км ясно +19.1 -3.4 22 +19 +26 1018.4 876.1
12 19.10 З 6 20 км ясно +20.0 -4.2 19 +19 +20 1017.9 875.3
15 19.10 З 3 20 км ясно +14.4 -7.0 22 +14 +14 1020.6 876.3 +20.5
18 19.10 СВ 3 18 км ясно +14.5 -5.8 24 +14 +14 1019.1 876.7
21 19.10 В 2 18 км ясно +9.9 -7.4 29 +9 +9 1018.0 876.3
00 20.10 В 2 18 км ясно +9.0 -7.0 32 +8 +8 1018.5 875.8
03 20.10 СВ 3 18 км ясно +7.4 -7.6 34 +5 +5 1021.5 876.7 +7.0
06 20.10 ЮВ 2 18 км ясно +18.7 -4.8 20 +19 +26 1019.1 877.3
09 20.10 З 3 15 км 3/0
[Ci fib]
+21.4 -7.7 13 +20 +28 1018.0 875.8
12 20.10 З 3 15 км 4/0
[Ci fib]
+21.9 -9.9 11 +20 +22 1017.1 875.0
15 20.10 СЗ 2 15 км 4/0
[Ci fib]
+16.0 -9.7 16 +16 +16 1020.0 875.7 +22.6
18 20.10 СВ 3 15 км 4/0
[Ci fib]
+14.9 -6.7 22 +14 +14 1017.2 875.7
21 20.10 В 2 15 км ясно +12.0 -7.6 25 +12 +12 1015.8 875.0
00 21.10 В 3 15 км ясно +11.2 -8.7 24 +10 +10 1016.2 874.7
03 21.10 СВ 3 20 км 1/1 1050 м
[Sc]
+11.0 -9.2 23 +10 +10 1018.9 875.6 +10.6
06 21.10 Ю 2 20 км 5/1 1050 м
[Sc diur, vesp Ac trans Ci fib]
+21.9 -6.4 14 +20 +25 1017.3 876.5
09 21.10 штиль 0 20 км 8/3 1050 м
[Sc diur, vesp Ac As Ci fib]
+23.8 -3.1 17 +22 +28 комфорт 1016.1 875.3

 

Местоположение метеостанции Ferdous (Иран): широта 34.02 долгота 58.17 высота над уровнем моря 1293 м.

В архиве по умолчанию представлена погода в Ferdous за последнюю неделю. Архивные данные за месяц целиком и за предыдущие месяцы, начиная с января 2011 года, Вы можете получить, выбрав интересующий диапазон дат из раскрывающегося списка и нажав кнопку "Ввод!".


*Определитесь, кто Вы:
робот инопланетянин человек

Внимание! Время в таблицах - всемирное. Для получения местного времени необходимо прибавить поправку, которая в Ferdous равна 3.5 ч.

Смотрите также архив погоды в соседних городах и на ближайших метеорологических станциях:

Погода в Tabas (Иран) (125 км)
Погода в Kashmar (Иран) (134 км)
Погода в Birjand (Иран) (160 км)
Погода в Torbat-Heydarieh (Иран) (169 км)
Погода в Sabzevar (Иран) (249 км)
Погода в Mashhad (Иран) (283 км)
Погода в Khor (Иран) (287 км)
Погода в Nehbandan (Иран) (327 км)
Погода в Quchan (Иран) (341 км)
Погода в Herat (Афганистан) (374 км)

Пояснения к столбцам:

Ветер - указаны скорость ветра в м/с - средняя за 10 мин, порывы в срок и между сроками (в фигурных скобках) и направление, откуда дует ветер: С - северный, СВ - северо-восточный, В - восточный, ЮВ - юго-восточный, Ю - южный, ЮЗ - юго-западный, З - западный, СЗ - северо-западный.
Видимость - горизонтальная дальность видимости в метрах или километрах. При видимости от 1 до 10 км при отсутствии осадков обычно наблюдается дымка, при ухудшении видимости до 1 км и менее - туман. В сухую погоду видимость может ухудшаться дымом, пылью или мглою.
Явления - указаны атмосферные явления, наблюдавшиеся в срок или в последний час перед сроком; фигурными скобками обозначены явления, наблюдавшиеся между сроками (за 1-3 часа до срока); квадратными скобками обозначены град или гололедные отложения с указанием их диаметра в мм.
Облачность - указаны через наклонную черту общая и нижняя облачность в баллах и высота нижней границы облаков в метрах; квадратными скобками обозначены формы облаков: Ci - перистые, Cs - перисто-слоистые, Cc - перисто-кучевые, Ac - высококучевые, As - высокослоистые, Sc - слоисто-кучевые, Ns - слоисто-дождевые, Cu - кучевые, Cb - кучево-дождевые. Подробнее классификацию облаков см. в Атласе облаков (PDF).
T - Температура воздуха - температура, измеренная на высоте 2 м над землей.
Td - Температура точки росы - температура, при понижении до которой содержащийся в воздухе водяной пар достигнет насыщения.
f - Относительная влажность воздуха - влажноcть воздуха, измеренная на высоте 2 м над землей.
Te - Эффективная температура - температура, которую ощущает одетый по сезону человек в тени. Характеристика душности погоды. При расчете учитывается влияние влажности воздуха и скорости ветра на теплоощущения человека.
Tes - Эффективная температура на солнце - температура, которую ощущает человек, с поправкой на солнечный нагрев. Характеристика знойности погоды. Зависит от высоты солнца над горизонтом, облачности и скорости ветра. Ночью, в пасмурную погоду, а также при ветре 12 м/с и более поправка равна нулю.
P - Атмосферное давление - приведенное к уровню моря атмосферное давление.
Po - Атмосферное давление - измеренное на уровне метеостанции атмосферное давление.
Tmin - Минимальная температура - минимум температуры воздуха на высоте 2 м над землей.
Tmax - Максимальная температура - максимум температуры воздуха на высоте 2 м над землей.
R - Количество осадков - Количество выпавших осадков за период времени, мм. При наведении курсора мыши на число - период времени, за который выпало указанное количество осадков.
R24 - Количество осадков - Количество выпавших осадков за 24 часа, мм.
S - Снежный покров - Высота снежного покрова, см. При наведении курсора мыши на число - состояние снежного покрова и степень покрытия местности в баллах.